Time,TemperatureF,DewpointF,PressureIn,WindDirection,WindDirectionDegrees,WindSpeedMPH,WindSpeedGustMPH,Humidity,HourlyPrecipIn,Conditions,Clouds,dailyrainin,SolarRadiationWatts/m^2,SoftwareType,DateUTC
2013-08-08 00:01:00,61.0,55.0,30.13,South,176,0.0,1.0,82,0.00,,,0.00,0.000000,,2013-08-08 04:01:00,
2013-08-08 00:12:00,61.0,55.0,30.13,South,176,0.0,1.0,82,0.00,,,0.00,0.000000,,2013-08-08 04:12:00,
2013-08-08 00:22:00,61.0,56.0,30.13,South,176,0.0,0.0,84,0.00,,,0.00,0.000000,,2013-08-08 04:22:00,
2013-08-08 00:33:00,61.0,56.0,30.13,South,173,0.0,2.0,84,0.00,,,0.00,0.000000,,2013-08-08 04:33:00,
2013-08-08 00:44:00,61.0,56.0,30.13,South,173,0.0,2.0,84,0.00,,,0.00,0.000000,,2013-08-08 04:44:00,
2013-08-08 00:51:00,61.0,57.0,30.13,South,174,0.0,1.0,86,0.00,,,0.00,0.000000,,2013-08-08 04:51:00,
2013-08-08 00:53:00,61.0,56.0,30.13,South,174,0.0,1.0,85,0.00,,,0.00,0.000000,,2013-08-08 04:53:00,
2013-08-08 01:02:00,61.0,56.0,30.13,South,174,0.0,0.0,85,0.00,,,0.00,0.000000,,2013-08-08 05:02:00,
2013-08-08 01:11:00,61.0,57.0,30.13,South,174,0.0,1.0,86,0.00,,,0.00,0.000000,,2013-08-08 05:11:00,
2013-08-08 01:22:00,61.0,57.0,30.13,South,174,0.0,1.0,86,0.00,,,0.00,0.000000,,2013-08-08 05:22:00,
2013-08-08 01:33:00,61.0,57.0,30.13,South,174,0.0,1.0,86,0.00,,,0.00,0.000000,,2013-08-08 05:33:00,
2013-08-08 01:43:00,61.0,57.0,30.13,South,174,0.0,1.0,86,0.00,,,0.00,0.000000,,2013-08-08 05:43:00,
2013-08-08 02:01:00,63.0,59.0,30.12,SSW,196,0.0,1.0,86,0.00,,,0.00,0.000000,,2013-08-08 06:01:00,
2013-08-08 02:12:00,63.0,58.0,30.11,SSE,164,0.0,4.0,85,0.00,,,0.00,0.000000,,2013-08-08 06:12:00,
2013-08-08 02:22:00,63.0,58.0,30.11,SSE,164,0.0,4.0,85,0.00,,,0.00,0.000000,,2013-08-08 06:22:00,
2013-08-08 02:32:00,63.0,58.0,30.11,SSE,164,0.0,4.0,85,0.00,,,0.00,0.000000,,2013-08-08 06:32:00,
2013-08-08 02:43:00,63.0,58.0,30.11,SSE,164,0.0,4.0,85,0.00,,,0.00,0.000000,,2013-08-08 06:43:00,
2013-08-08 03:02:00,64.0,59.0,30.10,South,187,0.0,1.0,85,0.00,,,0.00,0.000000,,2013-08-08 07:02:00,
2013-08-08 03:12:00,63.0,59.0,30.10,South,188,0.0,0.0,86,0.00,,,0.00,0.000000,,2013-08-08 07:12:00,
2013-08-08 03:22:00,63.0,59.0,30.11,South,186,0.0,1.0,87,0.00,,,0.00,0.000000,,2013-08-08 07:22:00,
2013-08-08 03:32:00,63.0,59.0,30.11,South,186,0.0,1.0,87,0.00,,,0.00,0.000000,,2013-08-08 07:32:00,
2013-08-08 03:43:00,63.0,60.0,30.11,SSW,192,1.0,5.0,89,0.00,,,0.00,0.000000,,2013-08-08 07:43:00,
2013-08-08 03:53:00,63.0,60.0,30.10,South,190,0.0,4.0,90,0.00,,,0.00,0.000000,,2013-08-08 07:53:00,
2013-08-08 04:02:00,64.0,61.0,30.09,South,180,0.0,5.0,91,0.00,,,0.00,0.000000,,2013-08-08 08:02:00,
2013-08-08 04:11:00,64.0,61.0,30.09,South,187,0.0,6.0,91,0.00,,,0.00,0.000000,,2013-08-08 08:11:00,
2013-08-08 04:22:00,64.0,61.0,30.09,South,187,0.0,6.0,91,0.00,,,0.00,0.000000,,2013-08-08 08:22:00,
2013-08-08 04:32:00,64.0,61.0,30.09,South,187,0.0,6.0,91,0.00,,,0.00,0.000000,,2013-08-08 08:32:00,
2013-08-08 04:43:00,64.0,61.0,30.09,South,187,0.0,6.0,91,0.00,,,0.00,0.000000,,2013-08-08 08:43:00,
2013-08-08 04:53:00,66.0,62.0,30.08,SSW,195,4.0,8.0,88,0.00,,,0.00,0.000000,,2013-08-08 08:53:00,
2013-08-08 05:02:00,66.0,62.0,30.08,SSW,195,4.0,8.0,88,0.00,,,0.00,0.000000,,2013-08-08 09:02:00,
2013-08-08 05:12:00,66.0,62.0,30.08,SSW,195,4.0,8.0,88,0.00,,,0.00,0.000000,,2013-08-08 09:12:00,
2013-08-08 05:22:00,66.0,63.0,30.08,SSW,192,2.0,6.0,89,0.00,,,0.00,0.000000,,2013-08-08 09:22:00,
2013-08-08 05:32:00,67.0,63.0,30.09,SSW,200,3.0,7.0,88,0.00,,,0.00,0.000000,,2013-08-08 09:32:00,
2013-08-08 05:43:00,67.0,63.0,30.09,SSW,200,3.0,7.0,88,0.00,,,0.00,0.000000,,2013-08-08 09:43:00,
2013-08-08 05:53:00,68.0,65.0,30.08,SSW,197,2.0,6.0,89,0.00,,,0.00,0.000000,,2013-08-08 09:53:00,
2013-08-08 06:01:00,68.0,65.0,30.08,SSW,197,2.0,6.0,89,0.00,,,0.00,0.000000,,2013-08-08 10:01:00,
2013-08-08 06:12:00,68.0,65.0,30.08,SSW,195,6.0,8.0,89,0.00,,,0.00,0.000000,,2013-08-08 10:12:00,
2013-08-08 06:22:00,68.0,65.0,30.08,SSW,196,3.0,9.0,89,0.00,,,0.00,0.000000,,2013-08-08 10:22:00,
2013-08-08 06:32:00,69.0,66.0,30.09,South,190,3.0,8.0,90,0.00,,,0.00,0.000000,,2013-08-08 10:32:00,
2013-08-08 06:43:00,69.0,66.0,30.09,SSW,195,4.0,12.0,89,0.00,,,0.00,0.000000,,2013-08-08 10:43:00,
2013-08-08 06:52:00,69.0,66.0,30.09,SSW,195,4.0,12.0,89,0.00,,,0.00,0.000000,,2013-08-08 10:52:00,
2013-08-08 07:02:00,69.0,66.0,30.09,SSW,192,3.0,9.0,89,0.00,,,0.00,14.000000,,2013-08-08 11:02:00,
2013-08-08 07:11:00,69.0,66.0,30.09,SSW,192,3.0,9.0,89,0.00,,,0.00,14.000000,,2013-08-08 11:11:00,
2013-08-08 07:22:00,69.0,65.0,30.09,South,191,3.0,11.0,88,0.00,,,0.00,25.000000,,2013-08-08 11:22:00,
2013-08-08 07:32:00,70.0,66.0,30.09,SSW,200,2.0,7.0,88,0.00,,,0.00,18.000000,,2013-08-08 11:32:00,
2013-08-08 07:43:00,70.0,66.0,30.09,SSW,197,4.0,9.0,87,0.00,,,0.00,83.000000,,2013-08-08 11:43:00,
2013-08-08 07:52:00,70.0,65.0,30.09,SSW,207,5.0,8.0,85,0.00,,,0.00,91.000000,,2013-08-08 11:52:00,
2013-08-08 08:02:00,70.0,65.0,30.09,SSW,197,5.0,9.0,83,0.00,,,0.00,77.000000,,2013-08-08 12:02:00,
2013-08-08 08:11:00,70.0,65.0,30.09,SSW,197,5.0,9.0,83,0.00,,,0.00,77.000000,,2013-08-08 12:11:00,
2013-08-08 08:22:00,70.0,64.0,30.09,SSW,198,1.0,9.0,81,0.00,,,0.00,53.000000,,2013-08-08 12:22:00,
2013-08-08 08:31:00,70.0,65.0,30.10,SW,215,5.0,10.0,83,0.00,,,0.00,46.000000,,2013-08-08 12:31:00,
2013-08-08 08:32:00,70.0,64.0,30.09,SSW,198,1.0,9.0,81,0.00,,,0.00,53.000000,,2013-08-08 12:32:00,
2013-08-08 08:43:00,71.0,66.0,30.09,South,187,4.0,10.0,83,0.00,,,0.00,51.000000,,2013-08-08 12:43:00,
2013-08-08 08:53:00,70.0,65.0,30.10,SW,215,5.0,10.0,83,0.00,,,0.00,46.000000,,2013-08-08 12:53:00,
2013-08-08 09:01:00,70.0,65.0,30.10,SW,215,5.0,10.0,83,0.00,,,0.00,46.000000,,2013-08-08 13:01:00,
2013-08-08 09:12:00,70.0,65.0,30.10,SW,215,5.0,10.0,83,0.00,,,0.00,46.000000,,2013-08-08 13:12:00,
2013-08-08 09:22:00,70.0,65.0,30.10,SW,215,5.0,10.0,83,0.00,,,0.00,46.000000,,2013-08-08 13:22:00,
2013-08-08 09:43:00,70.0,67.0,30.09,SSW,209,5.0,11.0,90,0.00,,,0.00,142.000000,,2013-08-08 13:43:00,
2013-08-08 09:53:00,71.0,68.0,30.08,SSW,206,8.0,14.0,89,0.00,,,0.00,109.000000,,2013-08-08 13:53:00,
2013-08-08 10:02:00,72.0,68.0,30.09,SSW,213,6.0,12.0,88,0.00,,,0.00,86.000000,,2013-08-08 14:02:00,
2013-08-08 10:22:00,72.0,68.0,30.09,SW,216,6.0,13.0,88,0.00,,,0.00,58.000000,,2013-08-08 14:22:00,
2013-08-08 10:32:00,72.0,68.0,30.09,SW,216,6.0,13.0,88,0.00,,,0.00,58.000000,,2013-08-08 14:32:00,
2013-08-08 10:43:00,72.0,69.0,30.09,SW,215,6.0,12.0,89,0.00,,,0.00,169.000000,,2013-08-08 14:43:00,
2013-08-08 10:53:00,72.0,69.0,30.09,SW,215,6.0,12.0,89,0.00,,,0.00,169.000000,,2013-08-08 14:53:00,
2013-08-08 11:02:00,74.0,70.0,30.09,SW,217,8.0,15.0,87,0.00,,,0.00,309.000000,,2013-08-08 15:02:00,
2013-08-08 11:32:00,76.0,70.0,30.08,SSW,204,8.0,16.0,83,0.00,,,0.00,348.000000,,2013-08-08 15:32:00,
2013-08-08 11:43:00,76.0,70.0,30.08,SSW,204,8.0,16.0,83,0.00,,,0.00,348.000000,,2013-08-08 15:43:00,
2013-08-08 11:53:00,78.0,72.0,30.08,SW,223,8.0,16.0,82,0.00,,,0.00,353.000000,,2013-08-08 15:53:00,
2013-08-08 12:02:00,78.0,72.0,30.08,SW,223,8.0,16.0,82,0.00,,,0.00,353.000000,,2013-08-08 16:02:00,
2013-08-08 12:11:00,77.0,71.0,30.08,SW,234,6.0,20.0,83,0.00,,,0.00,352.000000,,2013-08-08 16:11:00,
2013-08-08 12:22:00,77.0,71.0,30.08,SW,234,6.0,20.0,83,0.00,,,0.00,352.000000,,2013-08-08 16:22:00,
2013-08-08 12:32:00,79.0,72.0,30.08,SW,232,9.0,18.0,79,0.00,,,0.00,432.000000,,2013-08-08 16:32:00,
2013-08-08 12:42:00,78.0,69.0,30.08,WSW,237,10.0,19.0,75,0.00,,,0.00,441.000000,,2013-08-08 16:42:00,
2013-08-08 12:52:00,79.0,72.0,30.07,SW,235,8.0,14.0,78,0.00,,,0.00,1023.000000,,2013-08-08 16:52:00,
2013-08-08 13:01:00,79.0,70.0,30.07,SSW,203,8.0,20.0,73,0.00,,,0.00,949.000000,,2013-08-08 17:01:00,
2013-08-08 13:02:00,79.0,72.0,30.07,SW,235,8.0,14.0,78,0.00,,,0.00,1023.000000,,2013-08-08 17:02:00,
2013-08-08 13:11:00,79.0,72.0,30.07,SW,235,8.0,14.0,78,0.00,,,0.00,1023.000000,,2013-08-08 17:11:00,
2013-08-08 13:22:00,79.0,70.0,30.07,SSW,203,8.0,20.0,73,0.00,,,0.00,949.000000,,2013-08-08 17:22:00,
2013-08-08 13:32:00,79.0,70.0,30.07,SSW,203,8.0,20.0,73,0.00,,,0.00,949.000000,,2013-08-08 17:32:00,
2013-08-08 13:43:00,79.0,70.0,30.07,SSW,203,8.0,20.0,73,0.00,,,0.00,949.000000,,2013-08-08 17:43:00,
2013-08-08 13:52:00,79.0,70.0,30.07,SSW,203,8.0,20.0,73,0.00,,,0.00,949.000000,,2013-08-08 17:52:00,
2013-08-08 14:11:00,79.0,70.0,30.07,SW,236,8.0,19.0,74,0.00,,,0.00,930.000000,,2013-08-08 18:11:00,
2013-08-08 14:32:00,80.0,69.0,30.07,SW,230,7.0,18.0,70,0.00,,,0.00,886.000000,,2013-08-08 18:32:00,
2013-08-08 14:43:00,80.0,69.0,30.07,SW,230,7.0,18.0,70,0.00,,,0.00,886.000000,,2013-08-08 18:43:00,
2013-08-08 14:52:00,80.0,70.0,30.07,SW,227,12.0,22.0,71,0.00,,,0.00,858.000000,,2013-08-08 18:52:00,
2013-08-08 15:01:00,80.0,70.0,30.06,SW,222,9.0,20.0,72,0.00,,,0.00,828.000000,,2013-08-08 19:01:00,
2013-08-08 15:12:00,80.0,70.0,30.06,SW,222,9.0,20.0,72,0.00,,,0.00,828.000000,,2013-08-08 19:12:00,
2013-08-08 15:22:00,79.0,69.0,30.07,SW,218,9.0,20.0,72,0.00,,,0.00,158.000000,,2013-08-08 19:22:00,
2013-08-08 15:32:00,79.0,70.0,30.07,WSW,241,9.0,20.0,74,0.00,,,0.00,148.000000,,2013-08-08 19:32:00,
2013-08-08 15:43:00,79.0,70.0,30.07,WSW,241,9.0,20.0,74,0.00,,,0.00,148.000000,,2013-08-08 19:43:00,
2013-08-08 15:59:00,79.0,70.0,30.07,WSW,241,9.0,20.0,74,0.00,,,0.00,148.000000,,2013-08-08 19:59:00,
2013-08-08 16:22:00,78.0,68.0,30.07,WSW,242,10.0,19.0,72,0.00,,,0.00,237.000000,,2013-08-08 20:22:00,
2013-08-08 16:32:00,78.0,68.0,30.06,WSW,250,9.0,17.0,72,0.00,,,0.00,97.000000,,2013-08-08 20:32:00,
2013-08-08 16:42:00,78.0,68.0,30.06,WSW,250,9.0,17.0,72,0.00,,,0.00,97.000000,,2013-08-08 20:42:00,
2013-08-08 16:52:00,78.0,69.0,30.06,SW,219,8.0,16.0,74,0.00,,,0.00,58.000000,,2013-08-08 20:52:00,
2013-08-08 17:01:00,78.0,69.0,30.06,SW,233,5.0,18.0,73,0.00,,,0.00,46.000000,,2013-08-08 21:01:00,
2013-08-08 17:14:00,78.0,69.0,30.06,SW,233,5.0,18.0,73,0.00,,,0.00,46.000000,,2013-08-08 21:14:00,
2013-08-08 17:26:00,77.0,69.0,30.06,WSW,250,8.0,18.0,77,0.00,,,0.00,44.000000,,2013-08-08 21:26:00,
2013-08-08 17:34:00,77.0,69.0,30.04,SSW,212,12.0,19.0,77,0.00,,,0.00,47.000000,,2013-08-08 21:34:00,
2013-08-08 17:45:00,77.0,69.0,30.04,SSW,212,12.0,19.0,77,0.00,,,0.00,47.000000,,2013-08-08 21:45:00,
2013-08-08 17:57:00,76.0,69.0,30.05,SW,215,9.0,17.0,78,0.00,,,0.00,65.000000,,2013-08-08 21:57:00,
2013-08-08 18:05:00,76.0,69.0,30.05,SW,215,9.0,17.0,78,0.00,,,0.00,65.000000,,2013-08-08 22:05:00,
2013-08-08 18:16:00,76.0,69.0,30.05,SW,215,9.0,17.0,78,0.00,,,0.00,65.000000,,2013-08-08 22:16:00,
2013-08-08 18:49:00,75.0,68.0,30.04,SW,218,10.0,20.0,78,0.00,,,0.00,16.000000,,2013-08-08 22:49:00,
2013-08-08 18:58:00,74.0,67.0,30.04,SW,236,9.0,18.0,79,0.00,,,0.00,19.000000,,2013-08-08 22:58:00,
2013-08-08 19:06:00,74.0,68.0,30.04,SW,235,8.0,19.0,81,0.00,,,0.00,37.000000,,2013-08-08 23:06:00,
2013-08-08 19:14:00,74.0,68.0,30.04,SW,235,8.0,19.0,81,0.00,,,0.00,37.000000,,2013-08-08 23:14:00,
2013-08-08 19:37:00,74.0,69.0,30.04,SSW,208,6.0,20.0,84,0.00,,,0.00,12.000000,,2013-08-08 23:37:00,
2013-08-08 19:47:00,73.0,68.0,30.04,SW,224,8.0,17.0,85,0.00,,,0.00,12.000000,,2013-08-08 23:47:00,
2013-08-08 20:06:00,73.0,69.0,30.05,SW,216,6.0,14.0,87,0.00,,,0.00,0.000000,,2013-08-09 00:06:00,
2013-08-08 20:16:00,73.0,69.0,30.05,SW,228,8.0,16.0,88,0.00,,,0.00,0.000000,,2013-08-09 00:16:00,
2013-08-08 20:25:00,73.0,70.0,30.05,SW,224,9.0,17.0,89,0.00,,,0.00,0.000000,,2013-08-09 00:25:00,
2013-08-08 20:35:00,73.0,70.0,30.05,SW,224,9.0,17.0,89,0.00,,,0.00,0.000000,,2013-08-09 00:35:00,
2013-08-08 20:46:00,73.0,70.0,30.06,SW,227,7.0,17.0,90,0.00,,,0.00,0.000000,,2013-08-09 00:46:00,
2013-08-08 21:03:00,73.0,70.0,30.06,SW,219,9.0,18.0,90,0.00,,,0.00,0.000000,,2013-08-09 01:03:00,
2013-08-08 21:26:00,73.0,70.0,30.07,SW,216,6.0,15.0,90,0.00,,,0.00,0.000000,,2013-08-09 01:26:00,
2013-08-08 21:46:00,73.0,70.0,30.08,SW,218,7.0,13.0,91,0.00,,,0.00,0.000000,,2013-08-09 01:46:00,
2013-08-08 22:14:00,73.0,71.0,30.07,SW,214,10.0,17.0,92,0.00,,,0.00,0.000000,,2013-08-09 02:14:00,
2013-08-08 22:38:00,73.0,71.0,30.08,SW,215,6.0,15.0,92,0.00,,,0.00,0.000000,,2013-08-09 02:38:00,
2013-08-08 22:47:00,73.0,71.0,30.08,SW,215,6.0,15.0,92,0.00,,,0.00,0.000000,,2013-08-09 02:47:00,
2013-08-08 22:56:00,73.0,71.0,30.07,SSW,211,6.0,17.0,93,0.00,,,0.00,0.000000,,2013-08-09 02:56:00,
2013-08-08 23:08:00,73.0,71.0,30.06,SSW,212,9.0,16.0,93,0.00,,,0.00,0.000000,,2013-08-09 03:08:00,
2013-08-08 23:15:00,73.0,71.0,30.06,SSW,212,9.0,18.0,93,0.00,,,0.00,0.000000,,2013-08-09 03:15:00,
2013-08-08 23:25:00,73.0,71.0,30.06,SSW,211,6.0,16.0,94,0.00,,,0.00,0.000000,,2013-08-09 03:25:00,
2013-08-08 23:35:00,73.0,71.0,30.06,SSW,213,8.0,14.0,94,0.00,,,0.00,0.000000,,2013-08-09 03:35:00,
2013-08-08 23:47:00,73.0,71.0,30.07,SSW,212,7.0,13.0,94,0.00,,,0.00,0.000000,,2013-08-09 03:47:00,